Weather in Pemalang

Indonesia     6°53′09″S   109°22′51″E
temp.,
°C
wind,
m/s
gust,
m/s
humid.,
%
clouds,
%
prec.,
mm/h
press.,
hPa
HPBL,
m
21 april, wed
wed2101:00+23s22860 0.1 101140
04:00+22sse22835 0.0 101138
07:00+23s23795 0.0 1013102
10:00+29se12545 0.0 10121111
13:00+32n23487 0.0 10091496
16:00+29nne226225 0.0 1009600
19:00+25s227871 0.1 101139
22:00+24s358226 0.0 1013114
22 april, thu
thu2201:00+23s24855 0.0 101183
04:00+22s238444 0.0 101162
07:00+24s237599 0.0 1012108
10:00+30ene1252100 0.0 10121168
13:00+32n334847 0.0 10091542
16:00+28n326838 0.0 1008648
19:00+25se017743 0.3 101125
22:00+25ssw1181100 0.6 101216
23 april, fri
fri2301:00+24ssw228579 0.7 101026
04:00+23s2285100 0.0 101029
07:00+25s228099 0.0 1011108
10:00+30n115921 0.0 10111237
13:00+30n4262100 0.8 10081036
16:00+28nnw227134 3.9 1008337
19:00+25ssw118398 7.2 101024
22:00+24s238784 1.0 101258
24 april, sat
sat2401:00+24s238935 1.1 101063
04:00+23sse238910 0.1 101060
07:00+25sse23835 0.1 1012142
10:00+30ne116115 0.1 10121209
13:00+29nne326670 1.9 1010892
16:00+28nne1173100 3.8 1009542
19:00+25se1185100 5.4 101115
22:00+24s228950 0.2 101235
25 april, sun
sun2501:00+23s229047 0.4 101141
04:00+23s22897 0.1 101034
07:00+25s228314 0.1 1012109
10:00+30nne116334 0.0 10121101
13:00+30n326540 0.6 1009976
16:00+28nne22718 1.3 1009711
19:00+25e118465 4.3 101113
22:00+24s219169 4.1 101222